Voltar ao catálogo

STARLINK-5341

AtivoComunicaçõesVLEO
NORAD 55287·PAYLOAD·🇺🇸 United States

Lançado Jan 19, 2023 de Vandenberg Space Force Base

Loading…

Próximas Passagens (próximas 24 horas)

TLE

AtualizadoSource: CelesTrak SupGP

Época: Sep 14, 2026, 21:31 UTC

1 55287C 23010U   26257.89701389  .00789290  00000+0  63607-1 0  2574
2 55287  70.0004 247.5381 0003182 266.4542 247.7602 14.99440897    17

Acompanhe STARLINK-5341 em tempo real com AllMySat

Download on the App Store